USA 169 (MILSTAR-2 4)

Last updated on Thu Jul 03 2025 00:02:44 GMT+0000 (Coordinated Universal Time)

1 27711U 03012A 25183.54530406 -.00000197 00000+0 00000+0 0 9996 2 27711 11.8152 32.5899 0099474 11.1085 225.5776 1.00271341 29445
UTC large
Height (km)
Speed (km/s)
/
Latitude / Longitude
Inclination (degrees)
Orbital Period (minutes)
Azimuth
Elevation
Range (km)
Doppler Factor

Next 0 passes for location: London (51.5072 / 0.1276)

Sorry there are no passes over London.